Regional Weather Roundup
Issued by NWS Midland/Odessa, TX

Skip options and go directly to product.
Home | Oldest Version | Next Version | Current Version | All | Text Only | Save Text | Print | Product List | Glossary On

Skip product version selection by date and time.   
727
ASUS44 KMAF 170401
RWRMAF
MIDLAND AREA WEATHER ROUNDUP
NATIONAL WEATHER SERVICE MIDLAND TX
1100 PM CDT THU APR 16 2015

...IN SOUTHWEST TEXAS AND SOUTHEAST NEW MEXICO...

CITY           SKY/WX    TMP DP  RH WIND       PRES   REMARKS
ALPINE         PTCLDY    60  35  39 SE10      30.02R
ANDREWS        FAIR      61  58  90 S7        29.89R
ARTESIA        PTCLDY    61  28  29 W10       29.91R
BIG SPRING     CLEAR     70  56  61 SE9       29.91R
CARLSBAD       PTCLDY    68  28  22 W12       29.87R
DRYDEN           N/A     67  64  90 E5        29.89R
FORT STOCKTON  CLEAR     67  60  78 SE13      29.89R
GUAD PASS      PTCLDY    60   8  12 W18G33    30.02R
HOBBS          TSTM      55  50  82 S3        29.95R
MARFA          CLOUDY    66  32  28 SW17G24   30.02R
MIDLAND AIRPK  CLEAR     69  57  66 SE6       29.90R
MIDLAND INTL   PTCLDY    66  58  75 SE9       29.89R
ODESSA         CLEAR     67  57  70 SE10      29.89R
PECOS          CLEAR     63  56  78 E5        29.85R
PRESIDIO       FAIR      78  34  20 CALM      29.85R
SEMINOLE       CLEAR     62  56  83 S8        29.91R
SNYDER         PTCLDY   N/A N/A N/A SE10      29.91R
WINK           PTCLDY    68  56  65 SE14      29.85R
$$
...OTHER STATIONS IN TEXAS...

CITY           SKY/WX    TMP DP  RH WIND       PRES   REMARKS
ABILENE        MOCLDY    66  55  67 SE10      29.89F
AMARILLO       CLOUDY    55  52  89 N9        29.94F
AUSTIN         MOCLDY    65  65 100 NE5       29.93R
BROWNSVILLE    MOCLDY    76  74  93 SE5       29.84F FOG
CORPUS CHRISTI CLOUDY    76  73  91 SE15      29.87R FOG
DALLAS FTW     MOCLDY    66  60  81 S8        29.94R
DEL RIO        CLEAR     70  67  90 E9        29.87R
EL PASO        PTCLDY    63  -8   5 NW17G26   29.97R
HOUSTON INT    TSTM      67  65  93 E15       29.99R VSB 1
LUBBOCK        MOCLDY    62  55  77 SE22      29.88F
SAN ANGELO     PTCLDY    70  62  76 SE7       29.89R
SAN ANTONIO    CLOUDY    70  66  87 NE3       29.93R
WACO           CLEAR     63  61  93 E3        29.94R
WICHITA FALLS  NOT AVBL
$$
...OTHER LOCATIONS IN NEW MEXICO...

CITY           SKY/WX    TMP DP  RH WIND       PRES   REMARKS
ALAMAGORDO     PTCLDY    57  -2   9 CALM      30.02R
ALBUQUERQUE    MOCLDY    47   6  18 W9        30.07R
CANNON AFB     NOT AVBL
CLOVIS         MOCLDY    55  43  62 W12       29.92S
HOLLOMAN AFB   PTCLDY    56  -3   9 NW1       29.99R
ROSWELL        PTCLDY    65  15  14 W20       29.89R
RUIDOSO        PTCLDY    45  -2  14 SW9       30.07R WCI  40
SANTA FE       PTCLDY    38   4  24 N6        30.05R WCI  33
TRUTH OR CONSE CLEAR     48   2  15 NW9       30.04R
TUCUMCARI      PTCLDY    53  36  52 S8        29.90R
$$

USA.gov is the U.S. government's official web portal to all federal, state and local government web resources and services.